SCP
0 0 0 0 0 0 0 0 0 0 0 0 0 0 0 0 0 0 0 0 0 0 0 0 0 0 0 0 0 0 0 0 0 0 0 0 0 0 0 0 0 0 0
0 0 0 0 0 0 0 0 0 0 0 0 0 0 0 0 0 0 0 0 0 0 0 0 0 0 0 0 0 0 0 0 0 0 0 0 0 0 0 0 0 0 0
0 0 1 1 0 0 0 0 0 0 0 0 0 0 0 0 0 0 0 0 0 0 0 0 0 0 0 0 0 0 0 0 0 0 0 0 0 0 0 0 0 0 0
0 0 1 1 1 0 0 0 0 0 0 0 0 0 0 0 0 0 0 0 0 0 0 0 0 0 0 0 0 0 0 0 0 0 0 0 0 0 0 0 0 0 0
0 1 1 1 1 1 1 0 0 0 0 0 0 0 0 0 0 0 0 0 0 0 0 0 0 0 0 0 0 0 0 0 0 0 0 0 0 0 0 0 0 0 0
0 1 1 1 1 1 1 1 0 0 0 0 0 0 0 0 0 0 0 0 0 0 0 0 0 0 0 0 0 0 0 0 0 0 0 0 0 0 0 0 0 0 0
1 1 1 1 1 1 1 1 1 0 0 0 0 0 0 0 0 0 0 0 0 0 0 0 0 0 0 0 0 0 0 0 0 0 0 0 0 0 0 0 0 0 0
1 1 1 1 1 1 1 1 1 0 0 0 0 0 0 0 0 0 0 0 0 0 0 0 0 0 0 0 0 0 0 0 0 0 0 0 0 0 0 0 0 0 0
1 1 1 1 1 1 1 1 1 1 0 0 0 0 0 0 0 0 0 0 0 0 0 0 0 0 0 0 0 0 0 0 0 0 0 0 0 0 0 0 0 0 0
1 1 1 1 1 1 1 1 1 1 1 0 0 0 0 0 0 0 0 0 0 0 0 0 0 0 0 0 0 0 0 0 0 0 0 0 0 0 0 0 0 0 0
1 1 1 1 1 1 1 1 1 1 0 0 0 0 0 0 0 0 0 0 0 0 0 0 0 0 0 0 0 0 0 0 0 0 0 0 0 0 0 0 0 0 0
1 1 1 1 1 1 1 1 1 1 0 0 0 0 0 0 0 0 0 0 0 0 0 0 0 0 0 0 0 0 0 0 0 0 0 0 0 0 0 0 0 0 0
1 1 1 1 1 1 1 1 1 1 1 0 0 0 0 0 0 0 0 0 0 0 0 0 0 0 0 0 0 0 0 0 0 0 0 0 0 0 0 0 0 0 0
1 1 1 1 1 1 1 1 1 1 1 0 0 0 0 0 0 0 0 0 0 0 0 0 0 0 0 0 0 0 0 0 0 0 0 0 0 0 0 0 0 0 0
1 1 1 1 1 1 1 1 1 1 1 0 0 0 0 0 0 0 0 0 0 0 0 0 0 0 0 0 0 0 0 0 0 0 0 0 0 0 0 0 0 0 0
1 1 1 1 1 1 1 1 1 1 1 0 0 0 0 0 0 0 0 0 0 0 0 0 0 0 0 0 0 0 0 0 0 0 0 0 0 0 0 0 0 0 0
1 1 1 1 1 1 1 1 1 1 1 0 0 0 0 0 0 0 0 0 0 0 0 0 0 0 0 0 0 0 0 0 0 0 0 0 0 0 0 0 0 0 0
1 1 1 1 1 1 1 1 1 1 1 0 0 0 0 0 0 0 0 0 0 0 0 0 0 0 0 0 0 0 0 0 0 0 0 0 0 0 0 0 0 0 0
1 1 1 1 1 1 1 1 1 1 0 0 0 0 0 0 0 0 0 0 0 0 0 0 0 0 0 0 0 0 0 0 0 0 0 0 0 0 0 0 0 0 0
1 1 1 1 1 1 1 1 1 1 0 0 0 0 0 0 0 0 0 0 0 0 0 0 0 0 0 0 0 0 0 0 0 0 0 0 0 0 0 0 0 0 0
0 1 1 1 1 0 0 0 1 0 0 0 0 0 0 0 0 0 0 0 0 0 0 0 0 0 0 0 0 0 0 0 0 0 0 0 0 0 0 0 0 0 0
0 1 1 0 0 0 0 0 0 0 0 0 0 0 0 0 0 0 0 0 0 0 0 0 0 0 0 0 0 0 0 0 0 0 0 0 0 0 0 0 0 0 0
0 0 0 0 0 0 0 0 0 0 0 0 0 0 0 0 0 0 0 0 0 0 0 0 0 0 0 0 0 0 0 0 0 0 0 0 0 0 0 0 0 0 0
0 0 0 0 0 0 0 0 0 0 0 0 0 0 0 0 0 0 0 0 0 0 0 0 0 0 0 0 0 0 0 0 0 0 0 0 0 0 0 0 0 0 0
0 0 0 0 0 0 0 0 0 0 0 0 0 0 0 0 0 0 0 0 0 0 0 0 0 0 0 0 0 0 0 0 0 0 0 0 0 0 0 0 0 0 0
0 0 0 0 0 0 0 0 0 0 0 0 0 0 0 0 0 0 0 0 0 0 0 0 0 0 0 0 0 0 0 0 0 0 0 0 0 0 0 0 0 0 0
Wind_Speed
5 8 9 8 9 9 9 10 10 10 11 10 11 11 11 12 12 11 11 11 11 11 12 12 12 12 12 12 12 11 11 11 11 11 11 11 11 11 11 9 8 9 11
6 9 10 9 9 9 9 9 10 9 10 10 11 11 11 11 11 11 11 11 11 11 11 12 12 12 11 11 11 11 11 11 10 10 8 9 10 11 11 10 9 8 10
7 9 11 10 10 9 9 9 9 9 10 11 11 11 10 10 10 11 11 10 10 10 11 11 11 11 10 10 10 10 10 10 9 7 5 6 9 10 10 10 10 10 10
7 9 10 11 10 10 9 10 10 10 9 10 11 11 10 10 10 10 10 10 10 10 10 10 10 10 10 10 10 10 10 9 8 4 5 6 7 10 9 9 9 10 9
8 8 10 10 9 10 10 10 10 10 9 9 10 10 10 10 10 10 10 10 10 10 10 10 10 9 10 9 9 9 9 8 6 5 6 6 6 9 9 9 9 9 9
8 9 10 9 9 9 10 10 10 9 9 9 10 10 10 10 10 10 9 9 9 9 9 9 9 10 9 9 9 9 8 6 4 6 6 6 6 8 9 9 9 9 9
7 8 11 9 9 9 10 10 10 9 9 8 9 9 10 10 10 9 9 9 8 8 9 9 9 9 9 8 9 9 8 5 4 5 5 5 6 7 7 8 8 8 8
7 8 10 9 9 9 9 9 9 9 9 8 8 9 9 9 9 9 8 8 8 8 8 9 9 8 8 8 8 8 6 3 4 5 5 5 7 6 7 7 7 7 7
6 7 8 10 9 9 8 9 8 8 8 8 7 8 8 8 8 8 8 8 7 7 7 8 8 8 8 7 7 7 6 3 3 3 4 4 6 6 6 6 6 6 6
5 6 8 9 9 9 9 8 8 7 7 7 7 7 8 8 8 8 7 7 7 7 7 7 7 8 7 6 6 6 4 1 3 3 3 4 5 5 5 5 6 6 6
5 5 6 8 8 8 8 8 8 7 7 7 6 7 7 6 7 6 6 6 6 6 6 7 7 7 7 7 6 5 2 1 3 2 3 5 4 4 4 4 5 5 5
6 6 5 7 8 8 7 7 7 6 6 6 5 7 5 5 4 5 7 6 6 6 6 6 6 6 4 4 5 4 1 2 1 2 3 5 3 3 3 4 4 4 5
7 6 6 6 8 8 6 5 4 4 4 5 5 5 5 4 4 4 4 4 5 5 4 5 4 3 2 2 2 2 1 1 1 1 3 4 3 2 3 3 4 4 4
7 7 6 6 6 7 6 5 5 4 4 4 4 5 4 3 4 4 3 3 3 2 3 2 1 3 2 2 2 2 2 1 1 1 3 4 3 3 3 3 3 4 4
8 7 7 6 6 7 6 5 4 4 4 4 4 4 5 4 4 4 3 3 3 3 3 2 2 2 2 2 2 1 1 1 0 0 1 3 3 4 3 3 4 4 5
8 8 7 7 7 6 6 5 4 4 4 4 4 4 5 4 4 3 3 3 3 3 2 2 2 2 2 2 1 1 1 1 0 0 1 2 3 3 4 4 4 5 5
8 8 7 7 7 7 7 6 4 4 4 4 3 4 4 4 4 3 3 3 2 3 3 2 2 2 2 2 1 1 0 0 0 0 0 1 0 2 3 4 4 5 5
7 7 6 5 6 7 6 6 4 4 4 4 3 3 4 4 5 4 3 3 3 2 2 2 2 2 2 1 1 1 0 0 1 1 1 1 1 1 2 4 5 5 6
7 6 6 5 5 6 5 5 4 4 4 3 3 3 3 4 4 4 3 3 3 3 2 2 2 2 2 1 1 0 0 0 1 1 1 1 1 1 2 1 3 4 6
6 6 6 5 4 4 4 4 4 4 3 3 3 3 4 3 3 4 3 4 4 3 3 3 3 2 1 1 1 1 1 1 1 1 2 1 1 2 2 3 2 2 4
6 7 6 6 5 4 4 5 5 4 4 3 3 4 4 3 3 3 3 4 3 3 4 4 3 3 2 1 1 1 1 2 2 2 2 2 2 2 2 3 3 3 3
7 7 7 6 6 5 4 4 3 3 3 2 3 3 4 3 3 2 3 3 3 3 4 4 3 3 2 2 2 2 2 2 3 2 2 3 3 2 3 3 3 3 4
7 7 6 6 5 5 5 4 3 3 2 2 3 3 3 3 3 3 3 3 3 3 3 4 4 4 3 2 2 2 2 2 2 2 3 3 3 3 3 3 4 4 4
7 6 6 6 4 4 6 6 6 5 4 4 3 3 3 3 3 3 2 3 3 3 3 4 4 3 4 3 3 2 3 2 3 2 3 3 3 4 3 3 3 4 4
5 5 5 5 4 4 5 6 7 5 4 3 3 4 4 3 3 3 3 3 3 3 3 4 3 3 3 3 3 2 3 2 4 4 4 3 3 3 3 4 3 3 3
4 5 5 5 5 5 5 5 6 7 6 5 5 4 4 3 3 3 3 2 3 3 3 3 3 3 2 3 2 3 3 3 3 3 5 4 4 3 4 3 3 3 3
Wind_Direction
153 153 147 148 140 135 131 129 125 127 125 124 122 118 117 116 115 115 114 111 108 106 104 101 98 96 93 90 89 87 85 82 80 79 78 75 74 76 74 69 68 72 67
156 155 150 149 144 139 135 132 128 125 126 123 121 118 118 119 119 118 116 114 111 109 106 102 100 97 94 93 89 86 86 85 82 79 81 85 78 75 73 68 59 66 67
152 154 155 150 145 141 138 133 130 125 127 125 122 121 121 122 122 119 118 115 113 111 108 106 102 99 97 95 91 88 87 84 82 81 88 82 81 75 72 70 68 68 67
152 156 155 148 147 145 141 137 131 130 126 128 126 124 123 123 125 122 119 116 115 113 109 107 105 102 99 96 93 92 88 83 78 76 76 72 75 72 70 70 69 65 64
151 156 147 146 148 147 145 140 135 133 130 131 131 128 127 125 124 123 120 117 115 113 111 109 106 105 101 97 94 92 89 84 81 74 73 72 72 70 68 67 67 63 60
152 155 145 148 148 148 147 144 140 136 135 131 136 133 131 127 124 122 120 117 115 115 115 112 108 102 99 96 94 92 89 85 89 74 71 70 70 69 67 67 64 61 57
149 153 149 150 151 148 146 143 141 139 140 134 138 136 133 131 127 124 123 119 118 119 118 116 111 106 102 101 98 95 91 79 78 77 71 68 65 65 66 65 63 58 53
147 151 148 147 147 147 144 142 139 141 142 137 135 137 134 133 132 129 127 122 118 121 122 120 116 111 106 103 99 95 89 71 88 79 73 69 61 59 63 60 58 53 48
149 153 152 156 155 148 142 141 139 140 141 136 132 137 133 131 132 129 127 126 122 121 123 124 123 118 111 107 102 95 85 39 75 75 67 62 54 54 58 52 49 46 44
154 159 158 161 161 160 156 142 137 136 133 128 126 129 128 129 129 125 125 120 120 117 116 118 118 118 115 110 108 101 97 178 79 75 63 64 53 54 51 44 39 34 34
168 167 166 166 164 164 164 153 147 140 129 127 126 125 141 148 143 139 120 113 117 116 116 115 114 115 117 114 110 112 150 107 80 63 57 55 47 50 46 40 36 29 28
182 179 173 174 169 167 165 162 163 156 152 154 149 156 159 149 141 136 116 110 114 116 120 113 117 132 147 130 126 151 134 101 91 78 62 48 34 43 42 35 31 25 22
187 182 181 177 175 171 168 166 164 161 160 157 153 163 159 149 145 145 142 137 136 140 133 126 149 145 141 126 136 132 96 93 78 71 65 42 13 23 34 31 23 17 12
192 187 184 183 182 177 172 170 167 164 162 155 156 166 164 157 160 156 157 155 158 155 149 155 154 138 136 128 129 122 121 112 65 60 65 43 14 7 7 9 6 1 357
200 190 187 185 186 183 174 172 170 168 163 156 157 171 171 165 165 161 161 161 163 160 165 163 157 149 141 125 118 127 134 129 122 143 87 60 17 0 353 347 346 344 342
205 196 189 190 192 189 182 176 174 170 158 156 163 173 177 171 170 167 164 164 166 166 168 170 163 155 137 128 125 131 132 131 131 44 41 83 50 10 354 343 338 333 332
208 197 191 191 196 194 188 178 174 170 162 162 166 175 176 176 175 173 172 171 167 165 165 160 153 150 136 135 134 116 122 127 211 296 335 327 22 46 10 353 345 336 328
211 203 190 188 197 195 191 180 173 171 164 167 169 173 176 182 180 178 177 173 167 170 169 160 165 165 161 161 158 152 190 254 281 296 299 319 322 329 14 7 352 343 336
207 201 190 185 196 194 186 180 171 168 165 167 167 170 179 188 187 183 183 173 171 177 175 172 177 181 176 171 181 201 217 252 288 283 276 289 308 311 313 356 337 340 336
204 201 191 188 195 187 178 170 164 164 165 164 169 174 176 185 190 186 182 179 176 179 179 181 176 172 183 193 195 254 249 241 244 270 276 269 274 285 303 310 298 311 324
201 199 192 191 193 181 181 176 175 176 173 171 175 176 178 184 188 193 180 179 183 187 189 183 179 176 177 192 217 240 238 232 231 243 261 270 272 278 289 303 304 308 305
203 198 196 195 195 190 189 185 178 167 167 166 164 177 182 179 182 190 186 183 186 185 191 188 191 193 181 216 245 253 247 224 208 231 247 260 265 265 275 288 296 299 304
203 198 197 199 199 194 181 166 155 145 149 171 177 181 181 181 185 186 204 195 189 186 191 194 198 205 194 202 237 253 258 266 290 216 235 248 259 267 272 282 287 293 297
202 193 196 195 195 192 184 180 177 182 187 192 186 181 181 187 190 188 195 201 195 199 197 197 205 214 205 203 209 240 266 288 265 260 225 236 260 270 276 280 283 289 293
202 192 196 191 187 190 194 191 189 192 195 183 180 183 186 186 191 192 189 201 195 199 207 204 208 213 217 220 219 220 230 236 248 258 263 256 258 259 273 274 275 286 296
198 197 192 184 186 191 196 197 199 195 190 187 188 188 189 191 197 195 192 203 202 200 205 200 205 210 213 222 233 235 235 230 233 249 264 268 271 272 272 267 270 281 291